Weather History for South Lake Tahoe, CA

Change the Weather History Date:

Tuesday, May 6, 2014

  Actual Average Record
Temperature  
Mean Temperature 41 °F 46 °F  
Max Temperature 50 °F 61 °F 76 °F (1990)
Min Temperature 31 °F 30 °F 12 °F (1977)
Degree Days  
Heating Degree Days 24 20  
Month to date heating degree days 89 122  
Since 1 July heating degree days 6130 7012  
Cooling Degree Days 0 0  
Month to date cooling degree days 0 0  
Year to date cooling degree days 0 0  
Moisture  
Dew Point 30 °F    
Average Humidity 60    
Maximum Humidity 85    
Minimum Humidity 34    
Precipitation  
Precipitation 0.12 in - 1.16 in (2013)
Month to date precipitation 0.16  
Year to date precipitation 11.26  
Sea Level Pressure  
Sea Level Pressure 29.85 in    
Wind  
Wind Speed 3 mph (ESE)    
Max Wind Speed 14 mph    
Max Gust Speed 22 mph    
Visibility 6 miles    
Events Rain , Snow    
T = Trace of Precipitation, MM = Missing Value Source: NWS Daily Summary

Daily Weather History Graph

Daily Weather History Graph

Search for Another Location

Airport:

Trip Planner

Search our weather history database for the weather conditions in past years. The results will help you decide how hot, cold, wet, or windy it might be!

Date:

Astronomy

May. 06, 2014 Rise Set
Actual Time 5:56 AM PDT 7:57 PM PDT
Civil Twilight 5:27 AM PDT 8:26 PM PDT
Nautical Twilight 4:51 AM PDT 9:02 PM PDT
Astronomical Twilight 4:13 AM PDT 9:41 PM PDT
Moon 12:16 PM PDT (5/6) 1:19 AM PDT (5/6)
Length of Visible Light 14h 59m
Length of Day
14h 01m
Waxing Crescent, 47% of the Moon is Illuminated
May 6
Waxing Crescent
May 6
First Quarter
May 14
Full
May 21
Last Quarter
May 28
New

Hourly Weather History & Observations

Time (PDT) Temp. Windchill Dew Point Humidity Pressure Visibility Wind Dir Wind Speed Gust Speed Precip Events Conditions
12:53 AM 35.1 °F - 30.9 °F 85% 29.78 in 4.0 mi Calm Calm - 0.00 in Snow Light Snow
4:53 AM 32.0 °F - 27.0 °F 82% 29.74 in 10.0 mi Calm Calm - N/A   Mostly Cloudy
5:32 AM 32.0 °F - 27.0 °F 82% 29.81 in 10.0 mi Calm Calm - 0.00 in   Mostly Cloudy
5:53 AM 30.9 °F - 27.0 °F 85% 29.76 in 10.0 mi Calm Calm - 0.00 in   Scattered Clouds
6:15 AM 32.0 °F - 27.0 °F 82% 29.82 in 4.0 mi Calm Calm - 0.00 in Snow Light Snow
6:18 AM 32.0 °F - 27.0 °F 82% 29.83 in 1.5 mi Calm Calm - 0.00 in Snow Light Snow
6:21 AM 32.0 °F - 27.0 °F 82% 29.83 in 0.5 mi Calm Calm - 0.01 in Snow Snow
7:10 AM 32.0 °F 28.7 °F 27.0 °F 82% 29.84 in 1.8 mi South 3.5 mph - 0.00 in Snow Light Snow
7:17 AM 32.0 °F 27.5 °F 28.0 °F 85% 29.84 in 2.0 mi South 4.6 mph - 0.00 in Snow Light Snow
7:26 AM 33.1 °F 28.7 °F 28.0 °F 82% 29.83 in 1.5 mi SSW 4.6 mph - 0.00 in Snow Light Snow
7:34 AM 33.1 °F 28.7 °F 28.0 °F 82% 29.84 in 3.0 mi South 4.6 mph - 0.00 in Snow Light Snow
7:39 AM 33.1 °F 28.7 °F 28.0 °F 82% 29.84 in 6.0 mi SSE 4.6 mph - 0.00 in   Haze
7:46 AM 33.1 °F 28.7 °F 28.0 °F 82% 29.84 in 2.5 mi SSE 4.6 mph - 0.00 in Snow Light Snow
7:53 AM 33.1 °F 27.7 °F 28.0 °F 82% 29.81 in 1.0 mi South 5.8 mph - 0.00 in Snow Light Snow
8:01 AM 33.1 °F 26.9 °F 28.9 °F 85% 29.84 in 3.0 mi South 6.9 mph - 0.00 in Snow Light Snow
8:10 AM 33.1 °F 28.7 °F 28.9 °F 85% 29.85 in 7.0 mi SSE 4.6 mph - 0.01 in Snow Light Snow
8:23 AM 34.0 °F 29.8 °F 28.9 °F 82% 29.85 in 4.0 mi SSE 4.6 mph - 0.01 in Snow Light Snow
8:27 AM 34.0 °F 29.8 °F 28.9 °F 82% 29.85 in 2.5 mi SSE 4.6 mph - 0.01 in Snow Light Snow
8:33 AM 35.1 °F 29.3 °F 30.0 °F 82% 29.84 in 4.0 mi South 6.9 mph - 0.01 in Snow Light Snow
8:41 AM 35.1 °F 31.0 °F 30.9 °F 85% 29.84 in 6.0 mi South 4.6 mph - 0.01 in Snow Light Snow
8:51 AM 35.6 °F 30.7 °F 30.2 °F 81% 29.84 in 9.0 mi South 5.8 mph - 0.01 in   Overcast
8:53 AM 36.0 °F 31.1 °F 30.9 °F 82% 29.81 in 9.0 mi South 5.8 mph - 0.01 in   Overcast
9:07 AM 36.0 °F 32.1 °F 30.9 °F 82% 29.85 in 10.0 mi Variable 4.6 mph - N/A   Mostly Cloudy
9:19 AM 37.9 °F 34.4 °F 32.0 °F 79% 29.84 in 10.0 mi South 4.6 mph - N/A   Mostly Cloudy
9:49 AM 37.4 °F 34.9 °F 32.0 °F 81% 29.84 in 7.0 mi Variable 3.5 mph - 0.00 in Rain Light Rain
9:53 AM 37.9 °F - 32.0 °F 79% 29.81 in 9.0 mi Calm Calm - 0.00 in Rain Light Rain
10:05 AM 37.9 °F - 30.9 °F 76% 29.85 in 2.5 mi Calm Calm - 0.00 in Snow Light Snow
10:07 AM 37.0 °F - 30.9 °F 79% 29.85 in 1.0 mi Calm Calm - 0.01 in Snow Light Snow
10:13 AM 36.0 °F - 30.9 °F 82% 29.85 in 0.5 mi Calm Calm - 0.02 in Snow Snow
10:26 AM 37.0 °F 34.5 °F 30.9 °F 79% 29.85 in 2.0 mi Variable 3.5 mph - 0.03 in Snow Light Snow
10:31 AM 37.9 °F 35.5 °F 32.0 °F 79% 29.85 in 5.0 mi North 3.5 mph - 0.03 in Snow Light Snow
10:53 AM 37.9 °F 34.4 °F 30.9 °F 76% 29.82 in 10.0 mi NNE 4.6 mph - 0.03 in   Overcast
11:09 AM 37.9 °F 34.4 °F 32.0 °F 79% 29.86 in 10.0 mi ENE 4.6 mph - 0.00 in Rain Light Rain
11:19 AM 37.9 °F 33.5 °F 32.0 °F 79% 29.87 in 2.5 mi Variable 5.8 mph - 0.01 in Rain Rain
11:26 AM 37.9 °F 34.4 °F 32.0 °F 79% 29.87 in 3.0 mi NNE 4.6 mph - 0.01 in Snow Light Snow
11:34 AM 37.9 °F 33.5 °F 32.0 °F 79% 29.87 in 9.0 mi Variable 5.8 mph - 0.01 in Rain Light Rain
11:42 AM 37.9 °F 33.5 °F 30.9 °F 76% 29.87 in 3.0 mi NE 5.8 mph - 0.02 in Snow Light Snow
11:47 AM 37.4 °F 30.3 °F 30.2 °F 75% 29.87 in 2.0 mi NNE 10.4 mph - 0.02 in Snow Light Snow
11:49 AM 37.4 °F 29.3 °F 30.2 °F 75% 29.88 in 1.8 mi NNE 12.7 mph - 0.02 in Snow Light Snow
11:53 AM 36.0 °F 31.1 °F 30.0 °F 79% 29.85 in 1.0 mi Variable 5.8 mph - 0.03 in Snow Light Snow
12:01 PM 36.0 °F 31.1 °F 30.9 °F 82% 29.88 in 0.8 mi Variable 5.8 mph - 0.01 in Snow Light Snow
12:08 PM 36.0 °F 33.3 °F 30.9 °F 82% 29.88 in 0.8 mi NE 3.5 mph - 0.02 in Snow Light Snow
12:15 PM 37.0 °F 33.3 °F 30.9 °F 79% 29.88 in 1.2 mi NE 4.6 mph - 0.03 in Snow Light Snow
12:24 PM 37.9 °F 32.1 °F 32.0 °F 79% 29.87 in 4.0 mi North 8.1 mph - 0.03 in Snow Light Snow
12:27 PM 39.0 °F 35.7 °F 32.0 °F 76% 29.87 in 7.0 mi North 4.6 mph - 0.03 in Rain Light Rain
12:53 PM 39.0 °F 34.8 °F 33.1 °F 79% 29.84 in 10.0 mi ENE 5.8 mph - 0.03 in Rain Light Rain
1:53 PM 39.9 °F - 34.0 °F 79% 29.84 in 10.0 mi Calm Calm - 0.00 in   Overcast
2:12 PM 42.1 °F - 33.1 °F 70% 29.88 in 10.0 mi Calm Calm - N/A   Overcast
2:28 PM 44.1 °F 41.5 °F 30.9 °F 60% 29.88 in 10.0 mi Variable 4.6 mph - N/A   Overcast
2:53 PM 46.0 °F 41.0 °F 28.9 °F 51% 29.82 in 10.0 mi NNE 10.4 mph 18.4 mph N/A   Overcast
3:53 PM 48.9 °F - 28.0 °F 44% 29.81 in 10.0 mi Variable 4.6 mph - N/A   Overcast
4:53 PM 48.9 °F - 25.0 °F 39% 29.82 in 10.0 mi NNE 9.2 mph - N/A   Overcast
5:53 PM 48.0 °F - 21.9 °F 36% 29.83 in 10.0 mi Variable 5.8 mph - N/A   Overcast
6:53 PM 46.0 °F 44.8 °F 23.0 °F 40% 29.84 in 10.0 mi NNE 3.5 mph - N/A   Mostly Cloudy
7:53 PM 42.1 °F - 28.9 °F 60% 29.86 in 10.0 mi Calm Calm - N/A   Mostly Cloudy
8:53 PM 39.9 °F 35.8 °F 30.9 °F 70% 29.87 in 10.0 mi South 5.8 mph - N/A   Mostly Cloudy
9:53 PM 36.0 °F - 28.9 °F 76% 29.90 in 10.0 mi Calm Calm - N/A   Clear
10:53 PM 34.0 °F - 28.0 °F 79% 29.91 in 10.0 mi Calm Calm - N/A   Partly Cloudy
11:53 PM 33.1 °F - 27.0 °F 78% 29.91 in 10.0 mi Calm Calm - N/A   Clear